Weather in Gisborne

New Zealand     38°40′04″S   178°01′37″E
temp.,
°C
wind,
m/s
gust,
m/s
humid.,
%
clouds,
%
prec.,
mm/h
press.,
hPa
HPBL,
m
26 october, tue
tue2601:00+14nw44925 0.0 102080
04:00+14nw44925 0.0 102093
07:00+14nw34915 0.0 102181
10:00+17ne23804 0.0 1022169
13:00+16ene578966 0.1 1021188
16:00+16ene558556 0.0 1019311
19:00+20nw69585 0.0 1020139
22:00+16nnw5977100 0.0 1021132
27 october, wed
wed2701:00+14nnw5118999 0.0 1021225
04:00+14nw579098 0.0 1021120
07:00+14nw5790100 0.0 1021149
10:00+19nnw477187 0.0 1021159
13:00+21nnw5861100 0.0 1020236
16:00+21nnw4860100 0.0 1018211
19:00+19nw6966100 0.0 1018136
22:00+16nw5777100 0.0 1020101
28 october, thu
thu2801:00+15nw5683100 0.0 1019103
04:00+14nw4584100 0.0 101985
07:00+15wsw1183100 0.0 101926
10:00+15sse3388100 0.0 1020198
13:00+15ese5590100 0.0 1018217
16:00+15sse2289100 0.1 1017123
19:00+14nnw1294100 1.8 101787
22:00+15nnw2294100 0.7 101751
29 october, fri
fri2901:00+15nne229691 1.9 101627
04:00+15n239499 0.1 101440
07:00+14nw3392100 0.3 101468
10:00+16nne238529 0.0 1013178
13:00+19n15715 0.1 1011264
16:00+22nnw59474 0.1 1009346
19:00+18nw711624 0.1 1010225
22:00+15w118067 0.0 101319
30 october, sat
sat3001:00+14wnw347744 0.0 1013100
04:00+13nw34806 0.0 101483
07:00+13nw447929 0.0 1016113
10:00+16se346741 0.0 1016248
13:00+14se558190 0.0 1016286
16:00+14ese338410 0.0 1015229
19:00+15ene2384100 0.0 1015158
22:00+14n238493 0.0 101663